THORAD DELTA 1 DEB, 8168

Orbit data source: Space-Track

THORAD DELTA 1 DEB, 8168 is space debris in SSO originally from a launch on Fri, 15 Nov 1974 UTC launched from the Air Force Western Test Range (AFWTR). Debris objects in space refer to the collection of defunct objects orbiting the Earth. Examples of debris include non-operational satellites, rocket bodies, and fragments generated from explosions, collisions, or faulty payload assembly.

Loading next visibility...
Identifier
8168, 1974-089AJ
Orbit
SSO
Last TLE update
8 hours ago
Origin
Manufacturer
Unknown
Mission
Spacecraft
Bus & Motor
Unknown
Mass
Unknown
Launch date (UTC)
1974-11-15 (51 years ago)
Launch vehicle
Unknown
Launch site
Air Force Western Test Range (AFWTR)
Object type
Payload
Rocket body
Debris
Shape & HBR
Unknown
Radar Cross Section
0.280 m², Medium (>0.1 m² and < 1m²)

Expand to show TLE details & history

TLE from 8 hours ago
0 THORAD DELTA 1 DEB
1 08168U 74089AJ  25188.52304829 -.00000041  00000-0  31991-4 0  9991
2 08168 101.9064 149.5838 0020536 219.8514 251.6207 12.52730504315382
Epoch: 2025-07-07T12:33Z
TLE epoch observation values (Epoch: 2025-07-07T12:33:11.372Z)
Latitude
65.86135°
Longitude
-116.52726°
Altitude
1,469.4 km
Speed
7.132 km/s
True Right ascension
23h 50m 00s
True Declination
65° 44' 40"
Sunlit
Object was in daylight at epoch
Visualization orbit readout
Latitude
-35.40477°
Longitude
-152.67838°
Altitude
1,450.132 km
Speed
7.144 km/s
Apparent Right ascension
21h 10m 12s
Apparent Declination
-37° 20' 32"
Sunlit
Object is in full shadow
Visualization observer readout
Local Sidereal Time
08:50:23
Azimuth
302.063° NW
Elevation
-85.354°
Doppler factor
1
Orbital elements
Apogee altitude
1,466.724 km
Perigee altitude
1,434.57 km
Semi-major axis
7,828.784 km
Eccentricity
0.00205
Inclination
101.9064°
RAAN
149.5838°
Arg. of periapsis
219.8514°
True anomaly
Unknown
Mean anomaly
251.6207°
Eccentric anomaly
Unknown
Mean motion
3.1333 °/min
Orbital period
114.89 mins
BSTAR
0.000031991
Loading maneuver chart data...
Loading SW <> Apogee altitude chart data...
Loading historical data...
Loading historical data...
Loading historical data...
Loading historical data...
Loading historical data...
Loading historical data...
Loading historical data...

THORAD DELTA 1 DEB Visibility forecast

Observer location: undefined°, undefined°

Span
Click to sort rows by Start time (UTC) header in descending order
Start Az.
Max El. time (UTC)
Max El. Az.
Max El.
End time (UTC)
End Az.
15 mins2025-07-07 21:37:35.659Z177.085° S2025-07-07 21:45:35.659Z270.406° WNW41.223°2025-07-07 21:52:35.659Z334.488° NNW
14 mins2025-07-08 09:41:35.659Z34.274° NE2025-07-08 09:47:35.659Z96.82° ESE36.284°2025-07-08 09:55:35.659Z173.301° S
13 mins2025-07-08 11:34:35.659Z358.088° N2025-07-08 11:40:35.659Z296.91° NW32.602°2025-07-08 11:47:35.659Z235.554° WSW
6 mins2025-07-08 18:52:35.659Z65.383° ENE2025-07-08 18:55:35.659Z42.334° NE13.951°2025-07-08 18:58:35.659Z20.283° NNE
7 mins2025-07-08 20:39:35.659Z142.088° SSE2025-07-08 20:46:35.659Z55.93° ENE41.627°2025-07-08 20:46:35.659Z55.93° ENE
|